Saint Thomas, VI

11:37 PM AST on August 24, 2016 (GMT -0400)
King

Weather History for TIST - August, 2013

Change the Weather History Date:

Friday, August 2, 2013

  Actual Average Record
Temperature  
Mean Temperature 86 °F 84 °F  
Max Temperature 90 °F 90 °F 98 °F (1994)
Min Temperature 81 °F 78 °F 73 °F (1983)
Degree Days  
Heating Degree Days 0 0  
Month to date heating degree days 0 0  
Since 1 June heating degree days 0 0  
Since 1 July heating degree days 0 0  
Cooling Degree Days 21 19  
Month to date cooling degree days 39 38  
Year to date cooling degree days 3348 3434  
Since 1 June cooling degree days 1152 1182  
Growing Degree Days 36 (Base 50)    
Moisture  
Dew Point 76 °F    
Average Humidity 74    
Maximum Humidity 85    
Minimum Humidity 63    
Precipitation  
Precipitation T in 0.10 in 1.50 in (1963)
Month to date precipitation 0.01 0.21  
Year to date precipitation 17.56 16.62  
Sea Level Pressure  
Sea Level Pressure 30.07 in    
Wind  
Wind Speed 12 mph (ESE)    
Max Wind Speed 22 mph    
Max Gust Speed 26 mph    
Visibility 10 miles    
Events      
T = Trace of Precipitation, MM = Missing Value Source: NWS Daily Summary

Daily Weather History Graph

Daily Weather History Graph

Search for Another Location

Airport or City:

Trip Planner

Search our weather history database for the weather conditions in past years. The results will help you decide how hot, cold, wet, or windy it might be!

Date:

Astronomy

Aug. 02, 2013 Rise Set
Actual Time 5:58 AM AST 6:53 PM AST
Civil Twilight 5:35 AM AST 7:16 PM AST
Nautical Twilight 5:07 AM AST 7:44 PM AST
Astronomical Twilight 4:39 AM AST 8:12 PM AST
Moon 2:21 AM AST (8/2) 3:42 PM AST (8/2)
Length of Visible Light 13h 41m
Length of Day
12h 55m
Waning Crescent, 16% of the Moon is Illuminated
Aug 2
Waning Crescent
Aug 6
New
Aug 14
First Quarter
Aug 20
Full
Aug 28
Last Quarter

Hourly Weather History & Observations

Time (AST) Temp. Heat Index Dew Point Humidity Pressure Visibility Wind Dir Wind Speed Gust Speed Precip Events Conditions
12:53 AM 82.0 °F 89.4 °F 75.9 °F 82% 30.06 in 10.0 mi East 9.2 mph - N/A   Clear
1:53 AM 82.0 °F 89.4 °F 75.9 °F 82% 30.05 in 10.0 mi East 6.9 mph - 0.00 in   Partly Cloudy
2:53 AM 82.0 °F 89.4 °F 75.9 °F 82% 30.04 in 10.0 mi ESE 6.9 mph - N/A   Mostly Cloudy
3:53 AM 81.0 °F 87.3 °F 75.9 °F 85% 30.04 in 10.0 mi East 6.9 mph - N/A   Clear
5:53 AM 81.0 °F 87.3 °F 75.9 °F 85% 30.05 in 10.0 mi ESE 8.1 mph - N/A   Clear
6:53 AM 82.9 °F 90.8 °F 75.9 °F 79% 30.07 in 10.0 mi East 10.4 mph - N/A   Clear
7:53 AM 84.9 °F 95.3 °F 77.0 °F 77% 30.08 in 10.0 mi East 8.1 mph - N/A   Partly Cloudy
8:49 AM 86.0 °F 96.9 °F 77.0 °F 74% 30.08 in 10.0 mi East 11.5 mph 19.6 mph N/A   Mostly Cloudy
8:53 AM 87.1 °F 98.8 °F 77.0 °F 72% 30.09 in 10.0 mi East 18.4 mph 23.0 mph N/A   Mostly Cloudy
9:07 AM 87.8 °F 97.6 °F 75.2 °F 66% 30.09 in 10.0 mi ESE 15.0 mph 21.9 mph N/A   Scattered Clouds
10:53 AM 89.1 °F 100.2 °F 75.9 °F 65% 30.09 in 10.0 mi ESE 10.4 mph - N/A   Scattered Clouds
11:53 AM 88.0 °F 96.5 °F 73.9 °F 63% 30.09 in 10.0 mi SE 17.3 mph - N/A   Scattered Clouds
12:53 PM 89.1 °F 99.1 °F 75.0 °F 63% 30.08 in 10.0 mi SE 17.3 mph 25.3 mph N/A   Clear
1:53 PM 88.0 °F 97.5 °F 75.0 °F 65% 30.07 in 10.0 mi SE 17.3 mph 25.3 mph N/A   Scattered Clouds
2:53 PM 89.1 °F 100.2 °F 75.9 °F 65% 30.05 in 10.0 mi ESE 13.8 mph - N/A   Mostly Cloudy
4:18 PM 89.6 °F 99.8 °F 75.2 °F 62% 30.03 in 10.0 mi East 16.1 mph - N/A   Mostly Cloudy
4:53 PM 88.0 °F 100.2 °F 77.0 °F 70% 30.03 in 10.0 mi East 15.0 mph 21.9 mph N/A   Partly Cloudy
5:53 PM 86.0 °F 93.8 °F 73.9 °F 67% 30.04 in 10.0 mi East 12.7 mph - N/A   Clear
7:53 PM 84.0 °F 93.7 °F 77.0 °F 79% 30.07 in 10.0 mi East 10.4 mph - N/A   Partly Cloudy
8:53 PM 82.9 °F 90.8 °F 75.9 °F 79% 30.09 in 10.0 mi East 12.7 mph - N/A   Mostly Cloudy
9:53 PM 82.9 °F 90.8 °F 75.9 °F 79% 30.11 in 10.0 mi East 9.2 mph - N/A   Mostly Cloudy
10:53 PM 82.9 °F 90.2 °F 75.0 °F 77% 30.11 in 10.0 mi East 11.5 mph - N/A   Mostly Cloudy
11:53 PM 82.9 °F 90.8 °F 75.9 °F 79% 30.10 in 10.0 mi East 11.5 mph 19.6 mph N/A   Overcast